Location: Melbourne
(37.8666°S, 145.1333°E)
Time: 15:04:01
(UTC+10:00)

Hubble Space Telescope - Pass Details

Date: 20 February 2018
Orbit: 537 x 541 km, 28.5° (Epoch: 23 June)

Event Time Altitude Azimuth Distance (km) Brightness Sun altitude
Rises 20:58:19 0° 289° (WNW) 2,690 5.2 -9.5°
Reaches altitude 10° 21:00:58 10° 305° (NW) 1,798 3.9 -10.0°
Maximum altitude 21:04:09 21° 355° (N) 1,232 2.4 -10.6°
Enters shadow 21:06:44 13° 39° (NE) 1,623 2.7 -11.1°
